�N����,����,�g�[���i���ԁj���x,�g�[�����x,��g�[���i���ցj���x,����
 2004/01/01, 0:00,17.8,51,14.7,-9.9
 2004/01/01, 0:15,17.8,50,14.6,-9.9
 2004/01/01, 0:30,17.8,51,14.6,-9.9
 2004/01/01, 0:45,17.8,50,14.5,-9.9
 2004/01/01, 1:00,17.7,50,14.5,-9.9
 2004/01/01, 1:15,17.7,50,14.5,-9.9
 2004/01/01, 1:30,17.6,50,14.4,-9.9
 2004/01/01, 1:45,17.8,50,14.4,-9.9
 2004/01/01, 2:00,17.7,51,14.4,-9.9
 2004/01/01, 2:15,17.7,50,14.3,-9.9
 2004/01/01, 2:30,17.6,50,14.4,-9.9
 2004/01/01, 2:45,17.6,50,14.4,-9.9
 2004/01/01, 3:00,17.5,50,14.3,-9.9
 2004/01/01, 3:15,17.5,50,14.3,-9.9
 2004/01/01, 3:30,17.5,50,14.3,-9.9
 2004/01/01, 3:45,17.5,50,14.3,-9.9
 2004/01/01, 4:00,17.5,50,14.4,-9.9
 2004/01/01, 4:15,17.5,50,14.5,-9.9
 2004/01/01, 4:30,17.3,50,14.7,-9.9
 2004/01/01, 4:45,17.2,51,14.6,-9.9
 2004/01/01, 5:00,17.1,51,14.6,-9.9
 2004/01/01, 5:15,17.3,50,14.6,-9.9
 2004/01/01, 5:30,17.2,50,14.7,-9.9
 2004/01/01, 5:45,17.1,51,14.7,-9.9
 2004/01/01, 6:00,17.1,50,14.6,-9.9
 2004/01/01, 6:15,17.2,50,14.5,-9.9
 2004/01/01, 6:30,17.2,50,14.5,-9.9
 2004/01/01, 6:45,17.1,49,14.4,-9.9
 2004/01/01, 7:00,17,49,14.3,-9.9
 2004/01/01, 7:15,17,49,14.3,-9.9
 2004/01/01, 7:30,17.1,49,14.2,-9.9
 2004/01/01, 7:45,17.3,49,14.3,-9.9
 2004/01/01, 8:00,17.5,48,14.2,-9.9
 2004/01/01, 8:15,17.8,48,14.3,-9.9
 2004/01/01, 8:30,17.9,48,14.4,-9.9
 2004/01/01, 8:45,18.1,46,14.3,-9.9
 2004/01/01, 9:00,18.4,46,14.3,-9.9
 2004/01/01, 9:15,18.4,45,14.5,-9.9
 2004/01/01, 9:30,18.3,43,14.5,-9.9
 2004/01/01, 9:45,18.4,42,14.3,-9.9
 2004/01/01,10:00,18.4,43,14.2,-9.9
 2004/01/01,10:15,18.2,42,14.2,-9.9
 2004/01/01,10:30,18.1,42,14.3,-9.9
 2004/01/01,10:45,17.9,40,14.3,-9.9
 2004/01/01,11:00,17.9,40,14.3,-9.9
 2004/01/01,11:15,17.8,40,14.3,-9.9
 2004/01/01,11:30,17.8,42,14.4,-9.9
 2004/01/01,11:45,17.7,43,14.5,-9.9
 2004/01/01,12:00,17.8,42,14.5,-9.9
 2004/01/01,12:15,17.8,42,14.5,-9.9
 2004/01/01,12:30,17.7,42,14.5,-9.9
 2004/01/01,12:45,17.7,42,14.6,-9.9
 2004/01/01,13:00,17.7,42,14.6,-9.9
 2004/01/01,13:15,17.8,42,14.7,-9.9
 2004/01/01,13:30,17.8,45,14.6,-9.9
 2004/01/01,13:45,17.8,47,14.7,-9.9
 2004/01/01,14:00,17.9,48,14.6,-9.9
 2004/01/01,14:15,18,47,14.6,-9.9
 2004/01/01,14:30,17.9,45,14.8,-9.9
 2004/01/01,14:45,18,45,14.7,-9.9
 2004/01/01,15:00,17.9,43,14.8,-9.9
 2004/01/01,15:15,17.9,43,14.9,-9.9
 2004/01/01,15:30,18,43,14.9,-9.9
 2004/01/01,15:45,17.8,44,15,-9.9
 2004/01/01,16:00,18,43,15,-9.9
 2004/01/01,16:15,17.8,44,14.9,-9.9
 2004/01/01,16:30,18,45,14.8,-9.9
 2004/01/01,16:45,17.4,47,14.7,-9.9
 2004/01/01,17:00,17.8,46,14.8,-9.9
 2004/01/01,17:15,17.9,46,14.8,-9.9
 2004/01/01,17:30,18,47,14.7,-9.9
 2004/01/01,17:45,17.8,47,14.8,-9.9
 2004/01/01,18:00,17.8,47,14.8,-9.9
 2004/01/01,18:15,17.7,47,14.9,-9.9
 2004/01/01,18:30,17.8,47,14.9,-9.9
 2004/01/01,18:45,17.7,48,14.8,-9.9
 2004/01/01,19:00,17.6,48,14.9,-9.9
 2004/01/01,19:15,17.5,48,14.8,-9.9
 2004/01/01,19:30,17.6,48,14.7,-9.9
 2004/01/01,19:45,17.7,48,14.7,-9.9
 2004/01/01,20:00,17.9,49,14.6,-9.9
 2004/01/01,20:15,16.8,49,14.7,-9.9
 2004/01/01,20:30,17.6,49,14.8,-9.9
 2004/01/01,20:45,17.8,50,14.7,-9.9
 2004/01/01,21:00,18,52,14.5,-9.9
 2004/01/01,21:15,18,50,14.5,-9.9
 2004/01/01,21:30,17.9,47,14.4,-9.9
 2004/01/01,21:45,17.8,46,14.3,-9.9
 2004/01/01,22:00,18,51,14.4,-9.9
 2004/01/01,22:15,18.1,48,14.2,-9.9
 2004/01/01,22:30,18.4,45,14.2,-9.9
 2004/01/01,22:45,18.4,47,14.2,-9.9
 2004/01/01,23:00,18.5,48,14.3,-9.9
 2004/01/01,23:15,18.7,49,14.4,-9.9
 2004/01/01,23:30,18.7,49,14.3,-9.9
 2004/01/01,23:45,18.9,49,14.4,-9.9
 2004/01/02, 0:00,18.9,49,14.4,-9.9
 2004/01/02, 0:15,18.8,50,14.4,-9.9
 2004/01/02, 0:30,18.9,50,14.5,-9.9
 2004/01/02, 0:45,18.9,50,14.5,-9.9
 2004/01/02, 1:00,18.8,50,14.5,-9.9
 2004/01/02, 1:15,18.9,49,14.5,-9.9
 2004/01/02, 1:30,18.9,50,14.5,-9.9
 2004/01/02, 1:45,18.9,50,14.6,-9.9
 2004/01/02, 2:00,18.8,49,14.7,-9.9
 2004/01/02, 2:15,18.6,50,14.7,-9.9
 2004/01/02, 2:30,18.4,50,14.6,-9.9
 2004/01/02, 2:45,18.4,50,14.6,-9.9
 2004/01/02, 3:00,18.4,51,14.7,-9.9
 2004/01/02, 3:15,18.2,51,14.6,-9.9
 2004/01/02, 3:30,18.1,51,14.6,-9.9
 2004/01/02, 3:45,18,51,14.6,-9.9
 2004/01/02, 4:00,17.8,51,14.6,-9.9
 2004/01/02, 4:15,17.7,51,14.4,-9.9
 2004/01/02, 4:30,17.7,51,14.4,-9.9
 2004/01/02, 4:45,17.6,51,14.4,-9.9
 2004/01/02, 5:00,17.6,52,14.3,-9.9
 2004/01/02, 5:15,17.4,53,14.4,-9.9
 2004/01/02, 5:30,17.4,53,14.4,-9.9
 2004/01/02, 5:45,17.4,53,14.4,-9.9
 2004/01/02, 6:00,17.3,53,14.4,-9.9
 2004/01/02, 6:15,17.2,53,14.5,-9.9
 2004/01/02, 6:30,17.1,53,14.5,-9.9
 2004/01/02, 6:45,17.1,52,14.5,-9.9
 2004/01/02, 7:00,17.2,53,14.5,-9.9
 2004/01/02, 7:15,17.1,53,14.3,-9.9
 2004/01/02, 7:30,17.2,53,14.3,-9.9
 2004/01/02, 7:45,17.2,54,14.4,-9.9
 2004/01/02, 8:00,17.3,54,14.3,-9.9
 2004/01/02, 8:15,17.5,53,14.3,-9.9
 2004/01/02, 8:30,17.7,52,14.4,-9.9
 2004/01/02, 8:45,17.8,53,14.5,-9.9
 2004/01/02, 9:00,18.2,51,14.5,-9.9
 2004/01/02, 9:15,18.4,53,14.6,-9.9
 2004/01/02, 9:30,18.6,56,14.5,-9.9
 2004/01/02, 9:45,18.9,64,14.4,-9.9
 2004/01/02,10:00,19,64,14.5,-9.9
 2004/01/02,10:15,19,62,14.5,-9.9
 2004/01/02,10:30,19.2,65,14.5,-9.9
 2004/01/02,10:45,19.1,62,14.5,-9.9
 2004/01/02,11:00,19.2,61,14.5,-9.9
 2004/01/02,11:15,19,60,14.7,-9.9
 2004/01/02,11:30,19,58,14.7,-9.9
 2004/01/02,11:45,18.9,58,14.7,-9.9
 2004/01/02,12:00,18.9,58,14.6,-9.9
 2004/01/02,12:15,18.9,57,14.7,-9.9
 2004/01/02,12:30,18.9,57,14.7,-9.9
 2004/01/02,12:45,18.9,56,14.8,-9.9
 2004/01/02,13:00,18.8,56,14.9,-9.9
 2004/01/02,13:15,18.8,56,14.8,-9.9
 2004/01/02,13:30,18.9,56,14.8,-9.9
 2004/01/02,13:45,18.8,56,15,-9.9
 2004/01/02,14:00,18.6,55,15,-9.9
 2004/01/02,14:15,15.7,43,15.1,-9.9
 2004/01/02,14:30,17.1,49,15,-9.9
 2004/01/02,14:45,17.5,46,15.1,-9.9
 2004/01/02,15:00,17.5,49,15,-9.9
 2004/01/02,15:15,17.5,48,15,-9.9
 2004/01/02,15:30,17.3,48,14.8,-9.9
 2004/01/02,15:45,17.2,48,15,-9.9
 2004/01/02,16:00,17.1,49,14.8,-9.9
 2004/01/02,16:15,17,49,14.7,-9.9
 2004/01/02,16:30,17,49,14.9,-9.9
 2004/01/02,16:45,17,49,14.8,-9.9
 2004/01/02,17:00,16.8,50,14.9,-9.9
 2004/01/02,17:15,16.8,50,14.8,-9.9
 2004/01/02,17:30,16.8,50,14.8,-9.9
 2004/01/02,17:45,16.7,51,14.8,-9.9
 2004/01/02,18:00,16.7,51,14.9,-9.9
 2004/01/02,18:15,16.7,51,14.9,-9.9
 2004/01/02,18:30,16.7,51,15,-9.9
 2004/01/02,18:45,16.8,51,15,-9.9
 2004/01/02,19:00,16.7,51,15,-9.9
 2004/01/02,19:15,16.7,51,14.9,-9.9
 2004/01/02,19:30,16.6,51,14.9,-9.9
 2004/01/02,19:45,16.7,51,14.9,-9.9
 2004/01/02,20:00,16.7,51,15,-9.9
 2004/01/02,20:15,16.5,51,14.9,-9.9
 2004/01/02,20:30,16.6,51,15,-9.9
 2004/01/02,20:45,16.6,51,15,-9.9
 2004/01/02,21:00,16.6,52,14.8,-9.9
 2004/01/02,21:15,16.6,52,14.9,-9.9
 2004/01/02,21:30,16.5,52,15,-9.9
 2004/01/02,21:45,17,51,15.1,-9.9
 2004/01/02,22:00,17.4,56,15,-9.9
 2004/01/02,22:15,17.6,55,14.8,-9.9
 2004/01/02,22:30,17.6,54,14.9,-9.9
 2004/01/02,22:45,17.6,54,14.7,-9.9
 2004/01/02,23:00,17.6,54,14.6,-9.9
 2004/01/02,23:15,17.6,53,14.6,-9.9
 2004/01/02,23:30,17.6,52,14.5,-9.9
 2004/01/02,23:45,17.7,52,14.5,-9.9
 2004/01/03, 0:00,17.8,52,14.5,-9.9
 2004/01/03, 0:15,17.8,53,14.5,-9.9
 2004/01/03, 0:30,17.8,53,14.5,-9.9
 2004/01/03, 0:45,17.7,53,14.6,-9.9
 2004/01/03, 1:00,17.8,53,14.5,-9.9
 2004/01/03, 1:15,17.7,53,14.5,-9.9
 2004/01/03, 1:30,17.7,52,14.5,-9.9
 2004/01/03, 1:45,17.7,53,14.5,-9.9
 2004/01/03, 2:00,17.8,53,14.5,-9.9
 2004/01/03, 2:15,17.8,53,14.4,-9.9
 2004/01/03, 2:30,17.8,53,14.5,-9.9
 2004/01/03, 2:45,17.8,53,14.5,-9.9
 2004/01/03, 3:00,17.7,54,14.5,-9.9
 2004/01/03, 3:15,17.6,54,14.5,-9.9
 2004/01/03, 3:30,17.5,54,14.5,-9.9
 2004/01/03, 3:45,17.6,54,14.4,-9.9
 2004/01/03, 4:00,17.6,54,14.5,-9.9
 2004/01/03, 4:15,17.6,54,14.5,-9.9
 2004/01/03, 4:30,17.5,55,14.5,-9.9
 2004/01/03, 4:45,17.5,55,14.4,-9.9
 2004/01/03, 5:00,17.4,55,14.4,-9.9
 2004/01/03, 5:15,17.4,54,14.4,-9.9
 2004/01/03, 5:30,17.4,54,14.4,-9.9
 2004/01/03, 5:45,17.4,54,14.3,-9.9
 2004/01/03, 6:00,17.3,55,14.3,-9.9
 2004/01/03, 6:15,17.3,55,14.3,-9.9
 2004/01/03, 6:30,17.3,55,14.2,-9.9
 2004/01/03, 6:45,17.2,55,14.2,-9.9
 2004/01/03, 7:00,17.2,54,14.1,-9.9
 2004/01/03, 7:15,17.2,54,14,-9.9
 2004/01/03, 7:30,17.2,54,14,-9.9
 2004/01/03, 7:45,17.5,54,14,-9.9
 2004/01/03, 8:00,17.8,54,14.1,-9.9
 2004/01/03, 8:15,18,52,14.2,-9.9
 2004/01/03, 8:30,18.2,52,14.1,-9.9
 2004/01/03, 8:45,18.6,52,14.2,-9.9
 2004/01/03, 9:00,18.6,56,14.1,-9.9
 2004/01/03, 9:15,18.9,54,14,-9.9
 2004/01/03, 9:30,18.7,51,14.2,-9.9
 2004/01/03, 9:45,18.3,51,14.7,-9.9
 2004/01/03,10:00,18,48,14.7,-9.9
 2004/01/03,10:15,17.8,51,14.7,-9.9
 2004/01/03,10:30,17.7,52,14.9,-9.9
 2004/01/03,10:45,17.8,52,14.9,-9.9
 2004/01/03,11:00,17.5,52,14.9,-9.9
 2004/01/03,11:15,17.7,53,14.9,-9.9
 2004/01/03,11:30,17.6,50,14.8,-9.9
 2004/01/03,11:45,17.4,50,14.6,-9.9
 2004/01/03,12:00,17.4,49,14.6,-9.9
 2004/01/03,12:15,17.3,48,14.6,-9.9
 2004/01/03,12:30,17.3,47,14.6,-9.9
 2004/01/03,12:45,17.3,49,14.7,-9.9
 2004/01/03,13:00,17.1,47,14.6,-9.9
 2004/01/03,13:15,17.3,49,14.7,-9.9
 2004/01/03,13:30,17.4,52,15,-9.9
 2004/01/03,13:45,17.4,52,15,-9.9
 2004/01/03,14:00,15.7,34,15.1,-9.9
 2004/01/03,14:15,17.3,44,14.9,-9.9
 2004/01/03,14:30,17.4,42,14.8,-9.9
 2004/01/03,14:45,15.7,31,14.9,-9.9
 2004/01/03,15:00,17.5,39,14.9,-9.9
 2004/01/03,15:15,18,44,15,-9.9
 2004/01/03,15:30,18.5,49,14.8,-9.9
 2004/01/03,15:45,18.7,48,14.7,-9.9
 2004/01/03,16:00,18.7,50,14.8,-9.9
 2004/01/03,16:15,18.8,50,14.8,-9.9
 2004/01/03,16:30,18.9,50,14.8,-9.9
 2004/01/03,16:45,18.9,52,14.8,-9.9
 2004/01/03,17:00,19,56,14.7,-9.9
 2004/01/03,17:15,19,55,14.6,-9.9
 2004/01/03,17:30,19.2,51,14.6,-9.9
 2004/01/03,17:45,19.4,45,14.6,-9.9
 2004/01/03,18:00,19.8,49,14.5,-9.9
 2004/01/03,18:15,19.9,51,14.5,-9.9
 2004/01/03,18:30,20,47,14.6,-9.9
 2004/01/03,18:45,20,44,14.5,-9.9
 2004/01/03,19:00,20,43,14.5,-9.9
 2004/01/03,19:15,20.2,49,14.5,-9.9
 2004/01/03,19:30,20.4,51,14.5,-9.9
 2004/01/03,19:45,20.3,51,14.5,-9.9
 2004/01/03,20:00,20.5,53,14.5,-9.9
 2004/01/03,20:15,20.3,54,14.5,-9.9
 2004/01/03,20:30,20.5,55,14.7,-9.9
 2004/01/03,20:45,20.6,54,14.6,-9.9
 2004/01/03,21:00,20.6,54,14.5,-9.9
 2004/01/03,21:15,19.8,55,14.5,-9.9
 2004/01/03,21:30,19.3,55,14.4,-9.9
 2004/01/03,21:45,19,53,14.5,-9.9
 2004/01/03,22:00,19.1,55,14.3,-9.9
 2004/01/03,22:15,19.2,55,14.3,-9.9
 2004/01/03,22:30,19,54,14.3,-9.9
 2004/01/03,22:45,18.8,54,14.2,-9.9
 2004/01/03,23:00,18.8,53,14.2,-9.9
 2004/01/03,23:15,18.7,53,14.2,-9.9
 2004/01/03,23:30,18.7,53,14.2,-9.9
 2004/01/03,23:45,18.6,53,14.2,-9.9
 2004/01/04, 0:00,18.5,52,14.2,-9.9
 2004/01/04, 0:15,18.4,52,14,-9.9
 2004/01/04, 0:30,18.5,52,14,-9.9
 2004/01/04, 0:45,18.4,52,14,-9.9
 2004/01/04, 1:00,18.4,52,14,-9.9
 2004/01/04, 1:15,18.4,52,14.1,-9.9
 2004/01/04, 1:30,18.2,51,14,-9.9
 2004/01/04, 1:45,18.1,51,13.9,-9.9
 2004/01/04, 2:00,18.1,51,13.9,-9.9
 2004/01/04, 2:15,18.1,51,13.9,-9.9
 2004/01/04, 2:30,18.2,50,13.9,-9.9
 2004/01/04, 2:45,18.1,51,13.8,-9.9
 2004/01/04, 3:00,17.9,51,13.8,-9.9
 2004/01/04, 3:15,18,50,13.9,-9.9
 2004/01/04, 3:30,17.9,50,13.8,-9.9
 2004/01/04, 3:45,17.8,50,13.7,-9.9
 2004/01/04, 4:00,17.8,50,13.8,-9.9
 2004/01/04, 4:15,17.8,50,13.8,-9.9
 2004/01/04, 4:30,17.7,50,13.8,-9.9
 2004/01/04, 4:45,17.6,51,13.8,-9.9
 2004/01/04, 5:00,17.7,51,14,-9.9
 2004/01/04, 5:15,17.7,51,13.9,-9.9
 2004/01/04, 5:30,17.6,51,14,-9.9
 2004/01/04, 5:45,17.6,52,14,-9.9
 2004/01/04, 6:00,17.6,52,14,-9.9
 2004/01/04, 6:15,17.6,53,14.1,-9.9
 2004/01/04, 6:30,17.6,53,14.1,-9.9
 2004/01/04, 6:45,17.5,52,14,-9.9
 2004/01/04, 7:00,17.4,52,14,-9.9
 2004/01/04, 7:15,17.4,53,14,-9.9
 2004/01/04, 7:30,17.5,53,14.1,-9.9
 2004/01/04, 7:45,17.8,53,14,-9.9
 2004/01/04, 8:00,18.1,53,14.2,-9.9
 2004/01/04, 8:15,18.4,53,14.1,-9.9
 2004/01/04, 8:30,18.6,52,14,-9.9
 2004/01/04, 8:45,18.8,52,14.1,-9.9
 2004/01/04, 9:00,17.4,42,14.2,-9.9
 2004/01/04, 9:15,19.2,58,14.4,-9.9
 2004/01/04, 9:30,19.4,58,14.3,-9.9
 2004/01/04, 9:45,19.4,57,14.2,-9.9
 2004/01/04,10:00,19.2,55,14.3,-9.9
 2004/01/04,10:15,19.2,54,14.5,-9.9
 2004/01/04,10:30,19.1,54,14.5,-9.9
 2004/01/04,10:45,18.9,54,14.5,-9.9
 2004/01/04,11:00,18.8,54,14.6,-9.9
 2004/01/04,11:15,18.8,53,14.6,-9.9
 2004/01/04,11:30,18.8,53,14.6,-9.9
 2004/01/04,11:45,18.7,53,14.6,-9.9
 2004/01/04,12:00,18.7,52,14.6,-9.9
 2004/01/04,12:15,18.5,53,14.8,-9.9
 2004/01/04,12:30,18.5,54,14.7,-9.9
 2004/01/04,12:45,17.4,41,14.8,-9.9
 2004/01/04,13:00,17.6,50,14.9,-9.9
 2004/01/04,13:15,17.9,51,14.9,-9.9
 2004/01/04,13:30,18.6,58,14.8,-9.9
 2004/01/04,13:45,18.9,64,14.8,-9.9
 2004/01/04,14:00,18.9,61,14.8,-9.9
 2004/01/04,14:15,18.9,59,14.8,-9.9
 2004/01/04,14:30,18.9,58,14.8,-9.9
 2004/01/04,14:45,18.9,56,14.8,-9.9
 2004/01/04,15:00,18.9,55,14.8,-9.9
 2004/01/04,15:15,18.9,55,14.8,-9.9
 2004/01/04,15:30,18.7,55,14.9,-9.9
 2004/01/04,15:45,18.4,52,15.1,-9.9
 2004/01/04,16:00,18.5,53,14.9,-9.9
 2004/01/04,16:15,15.9,37,14.9,-9.9
 2004/01/04,16:30,18,46,14.6,-9.9
 2004/01/04,16:45,18.2,45,14.6,-9.9
 2004/01/04,17:00,18.1,47,14.6,-9.9
 2004/01/04,17:15,17.8,51,15.1,-9.9
 2004/01/04,17:30,17.6,51,15.4,-9.9
 2004/01/04,17:45,17.7,50,15.1,-9.9
 2004/01/04,18:00,17.5,49,14.9,-9.9
 2004/01/04,18:15,17.4,48,14.8,-9.9
 2004/01/04,18:30,17.3,48,14.6,-9.9
 2004/01/04,18:45,17.2,47,14.6,-9.9
 2004/01/04,19:00,17.1,47,14.7,-9.9
 2004/01/04,19:15,17,47,14.5,-9.9
 2004/01/04,19:30,16.8,47,14.4,-9.9
 2004/01/04,19:45,16.9,48,14.5,-9.9
 2004/01/04,20:00,16.8,49,14.7,-9.9
 2004/01/04,20:15,16.8,49,14.6,-9.9
 2004/01/04,20:30,16.7,50,14.6,-9.9
 2004/01/04,20:45,16.8,50,14.6,-9.9
 2004/01/04,21:00,16.7,51,14.6,-9.9
 2004/01/04,21:15,16.7,51,14.7,-9.9
 2004/01/04,21:30,16.6,51,14.8,-9.9
 2004/01/04,21:45,16.7,51,14.6,-9.9
 2004/01/04,22:00,16.6,52,14.6,-9.9
 2004/01/04,22:15,16.6,52,14.7,-9.9
 2004/01/04,22:30,16.5,52,14.6,-9.9
 2004/01/04,22:45,16.6,52,14.8,-9.9
 2004/01/04,23:00,16.5,52,14.7,-9.9
 2004/01/04,23:15,16.6,52,14.8,-9.9
 2004/01/04,23:30,16.5,52,14.7,-9.9
 2004/01/04,23:45,16.6,52,14.7,-9.9
 2004/01/05, 0:00,16.6,52,14.7,-9.9
 2004/01/05, 0:15,17,51,14.7,-9.9
 2004/01/05, 0:30,17.1,51,14.6,-9.9
 2004/01/05, 0:45,17,52,14.7,-9.9
 2004/01/05, 1:00,17.1,52,14.6,-9.9
 2004/01/05, 1:15,17,52,14.8,-9.9
 2004/01/05, 1:30,17.1,52,14.7,-9.9
 2004/01/05, 1:45,17.1,52,14.7,-9.9
 2004/01/05, 2:00,17.2,52,14.6,-9.9
 2004/01/05, 2:15,17.1,52,14.6,-9.9
 2004/01/05, 2:30,17.1,52,14.6,-9.9
 2004/01/05, 2:45,17.3,52,14.5,-9.9
 2004/01/05, 3:00,17.3,53,14.5,-9.9
 2004/01/05, 3:15,17.1,53,14.5,-9.9
 2004/01/05, 3:30,17.3,53,14.5,-9.9
 2004/01/05, 3:45,17.2,53,14.4,-9.9
 2004/01/05, 4:00,17.2,53,14.5,-9.9
 2004/01/05, 4:15,17.1,53,14.5,-9.9
 2004/01/05, 4:30,17.2,54,14.3,-9.9
 2004/01/05, 4:45,17.2,54,14.3,-9.9
 2004/01/05, 5:00,17.3,54,14.4,-9.9
 2004/01/05, 5:15,17.3,54,14.4,-9.9
 2004/01/05, 5:30,17.1,54,14.5,-9.9
 2004/01/05, 5:45,17.3,54,14.4,-9.9
 2004/01/05, 6:00,17.1,54,14.5,-9.9
 2004/01/05, 6:15,17.1,54,14.4,-9.9
 2004/01/05, 6:30,17.3,54,14.3,-9.9
 2004/01/05, 6:45,17.3,54,14.3,-9.9
 2004/01/05, 7:00,17.3,54,14.4,-9.9
 2004/01/05, 7:15,17.5,53,14.5,-9.9
 2004/01/05, 7:30,17.5,50,14.4,-9.9
 2004/01/05, 7:45,17.9,48,14.4,-9.9
 2004/01/05, 8:00,17.6,50,14.3,-9.9
 2004/01/05, 8:15,17.3,50,14.2,-9.9
 2004/01/05, 8:30,17.6,48,14.1,-9.9
 2004/01/05, 8:45,17.7,46,14.1,-9.9
 2004/01/05, 9:00,17.6,46,14.2,-9.9
 2004/01/05, 9:15,17.7,46,14.1,-9.9
 2004/01/05, 9:30,17.6,47,14.3,-9.9
 2004/01/05, 9:45,17.7,48,14.4,-9.9
 2004/01/05,10:00,17.6,48,14.5,-9.9
 2004/01/05,10:15,17.5,49,14.6,-9.9
 2004/01/05,10:30,17.5,49,14.7,-9.9
 2004/01/05,10:45,17.3,50,14.8,-9.9
 2004/01/05,11:00,17.3,50,14.8,-9.9
 2004/01/05,11:15,17.3,50,14.9,-9.9
 2004/01/05,11:30,17.3,50,15,-9.9
 2004/01/05,11:45,17.3,50,15,-9.9
 2004/01/05,12:00,17.3,50,15.1,-9.9
 2004/01/05,12:15,17.3,50,15.1,-9.9
 2004/01/05,12:30,17.3,50,15.1,-9.9
 2004/01/05,12:45,17.3,49,15.2,-9.9
 2004/01/05,13:00,17.3,50,15.1,-9.9
 2004/01/05,13:15,17.3,50,15.2,-9.9
 2004/01/05,13:30,17.3,50,15.3,-9.9
 2004/01/05,13:45,17.2,50,15.2,-9.9
 2004/01/05,14:00,17.3,50,15.2,-9.9
 2004/01/05,14:15,17.2,50,15.2,-9.9
 2004/01/05,14:30,17.3,50,15.2,-9.9
 2004/01/05,14:45,17.1,50,15.1,-9.9
 2004/01/05,15:00,17.1,50,15.1,-9.9
 2004/01/05,15:15,17.2,49,15.1,-9.9
 2004/01/05,15:30,17.2,50,15,-9.9
 2004/01/05,15:45,17.1,49,15.1,-9.9
 2004/01/05,16:00,17.2,50,15,-9.9
 2004/01/05,16:15,17.1,50,15.2,-9.9
 2004/01/05,16:30,17.1,49,15.3,-9.9
 2004/01/05,16:45,17.1,49,15.4,-9.9
 2004/01/05,17:00,16.9,49,15.3,-9.9
 2004/01/05,17:15,17,49,15.2,-9.9
 2004/01/05,17:30,17,50,15.2,-9.9
 2004/01/05,17:45,16.9,50,15.2,-9.9
 2004/01/05,18:00,17,50,15.2,-9.9
 2004/01/05,18:15,16.8,50,15.1,-9.9
 2004/01/05,18:30,16.9,50,15.1,-9.9
 2004/01/05,18:45,16.8,50,15.1,-9.9
 2004/01/05,19:00,16.9,50,15.1,-9.9
 2004/01/05,19:15,16.8,51,15.1,-9.9
 2004/01/05,19:30,16.8,51,15.2,-9.9
 2004/01/05,19:45,16.8,51,15.1,-9.9
 2004/01/05,20:00,16.8,51,15.1,-9.9
 2004/01/05,20:15,16.9,51,15.1,-9.9
 2004/01/05,20:30,17.3,50,15,-9.9
 2004/01/05,20:45,17.5,51,14.9,-9.9
 2004/01/05,21:00,17.4,52,14.9,-9.9
 2004/01/05,21:15,17.6,52,14.9,-9.9
 2004/01/05,21:30,17.5,52,14.9,-9.9
 2004/01/05,21:45,17.5,51,14.8,-9.9
 2004/01/05,22:00,17.7,52,14.9,-9.9
 2004/01/05,22:15,17.6,52,14.8,-9.9
 2004/01/05,22:30,17.6,52,14.8,-9.9
 2004/01/05,22:45,17.7,52,14.6,-9.9
 2004/01/05,23:00,17.6,52,14.7,-9.9
 2004/01/05,23:15,17.7,52,14.6,-9.9
 2004/01/05,23:30,17.9,52,14.6,-9.9
 2004/01/05,23:45,18.1,53,14.7,-9.9
 2004/01/06, 0:00,18.1,53,14.7,-9.9
 2004/01/06, 0:15,18.1,53,14.8,-9.9
 2004/01/06, 0:30,18.1,53,14.8,-9.9
 2004/01/06, 0:45,18,53,14.6,-9.9
 2004/01/06, 1:00,17.9,53,14.6,-9.9
 2004/01/06, 1:15,18,53,14.7,-9.9
 2004/01/06, 1:30,17.8,53,14.7,-9.9
 2004/01/06, 1:45,17.8,53,14.7,-9.9
 2004/01/06, 2:00,17.8,53,14.6,-9.9
 2004/01/06, 2:15,17.8,53,14.7,-9.9
 2004/01/06, 2:30,17.8,53,14.6,-9.9
 2004/01/06, 2:45,17.7,53,14.6,-9.9
 2004/01/06, 3:00,17.7,54,14.7,-9.9
 2004/01/06, 3:15,17.7,54,14.6,-9.9
 2004/01/06, 3:30,17.6,54,14.6,-9.9
 2004/01/06, 3:45,17.7,53,14.5,-9.9
 2004/01/06, 4:00,17.7,54,14.6,-9.9
 2004/01/06, 4:15,17.6,54,14.5,-9.9
 2004/01/06, 4:30,17.6,54,14.6,-9.9
 2004/01/06, 4:45,17.6,54,14.5,-9.9
 2004/01/06, 5:00,17.6,54,14.6,-9.9
 2004/01/06, 5:15,17.6,54,14.6,-9.9
 2004/01/06, 5:30,17.5,54,14.5,-9.9
 2004/01/06, 5:45,17.6,54,14.5,-9.9
 2004/01/06, 6:00,17.6,54,14.6,-9.9
 2004/01/06, 6:15,17.6,54,14.5,-9.9
 2004/01/06, 6:30,17.4,55,14.6,-9.9
 2004/01/06, 6:45,17.5,55,14.6,-9.9
 2004/01/06, 7:00,17.6,54,14.6,-9.9
 2004/01/06, 7:15,17.4,54,14.9,-9.9
 2004/01/06, 7:30,12.9,53,14.8,-9.9
 2004/01/06, 7:45,17,50,14.8,-9.9
 2004/01/06, 8:00,17.1,48,14.6,-9.9
 2004/01/06, 8:15,17,47,14.5,-9.9
 2004/01/06, 8:30,17.1,47,14.5,-9.9
 2004/01/06, 8:45,17,47,14.4,-9.9
 2004/01/06, 9:00,16.9,46,14.4,-9.9
 2004/01/06, 9:15,16.9,46,14.3,-9.9
 2004/01/06, 9:30,16.8,46,14.2,-9.9
 2004/01/06, 9:45,16.8,48,14.3,-9.9
 2004/01/06,10:00,16.9,48,14.6,-9.9
 2004/01/06,10:15,16.8,49,14.7,-9.9
 2004/01/06,10:30,17,49,14.6,-9.9
 2004/01/06,10:45,16.9,49,14.8,-9.9
 2004/01/06,11:00,17,49,14.9,-9.9
 2004/01/06,11:15,17,49,14.9,-9.9
 2004/01/06,11:30,17,49,15,-9.9
 2004/01/06,11:45,17,50,15,-9.9
 2004/01/06,12:00,17.1,50,14.9,-9.9
 2004/01/06,12:15,17.1,50,15,-9.9
 2004/01/06,12:30,17,50,15,-9.9
 2004/01/06,12:45,17.1,50,14.9,-9.9
 2004/01/06,13:00,17.1,50,15,-9.9
 2004/01/06,13:15,16.9,51,15,-9.9
 2004/01/06,13:30,16.9,51,15,-9.9
 2004/01/06,13:45,17,51,15,-9.9
 2004/01/06,14:00,17,50,15.1,-9.9
 2004/01/06,14:15,17,51,15.1,-9.9
 2004/01/06,14:30,17,51,15.1,-9.9
 2004/01/06,14:45,16.9,51,15.2,-9.9
 2004/01/06,15:00,17,51,15.2,-9.9
 2004/01/06,15:15,16.9,51,15.1,-9.9
 2004/01/06,15:30,16.9,51,15.1,-9.9
 2004/01/06,15:45,17,51,15,-9.9
 2004/01/06,16:00,17,51,15,-9.9
 2004/01/06,16:15,16.9,51,15.1,-9.9
 2004/01/06,16:30,17,51,15.1,-9.9
 2004/01/06,16:45,16.9,51,15.1,-9.9
 2004/01/06,17:00,16.9,51,14.9,-9.9
 2004/01/06,17:15,16.9,51,14.9,-9.9
 2004/01/06,17:30,17,51,14.9,-9.9
 2004/01/06,17:45,16.9,51,14.7,-9.9
 2004/01/06,18:00,16.9,51,14.7,-9.9
 2004/01/06,18:15,16.8,51,14.8,-9.9
 2004/01/06,18:30,16.9,51,14.7,-9.9
 2004/01/06,18:45,16.8,51,14.7,-9.9
 2004/01/06,19:00,16.9,51,14.8,-9.9
 2004/01/06,19:15,16.8,52,14.8,-9.9
 2004/01/06,19:30,16.8,52,14.8,-9.9
 2004/01/06,19:45,16.9,52,14.8,-9.9
 2004/01/06,20:00,17.1,54,15,-9.9
 2004/01/06,20:15,17,53,15,-9.9
 2004/01/06,20:30,16.8,52,14.8,-9.9
 2004/01/06,20:45,15.6,51,14.7,-9.9
 2004/01/06,21:00,17.3,49,14.5,-9.9
 2004/01/06,21:15,17.6,48,14.5,-9.9
 2004/01/06,21:30,18,43,14.4,-9.9
 2004/01/06,21:45,18,45,14.3,-9.9
 2004/01/06,22:00,17.8,44,14.3,-9.9
 2004/01/06,22:15,17.6,44,14.2,-9.9
 2004/01/06,22:30,17.8,47,14.4,-9.9
 2004/01/06,22:45,18,48,14.3,-9.9
 2004/01/06,23:00,17.8,50,14.4,-9.9
 2004/01/06,23:15,17.8,51,14.5,-9.9
 2004/01/06,23:30,17.7,52,14.7,-9.9
 2004/01/06,23:45,17.5,52,14.7,-9.9
 2004/01/07, 0:00,17.4,53,14.6,-9.9
 2004/01/07, 0:15,17.5,53,14.6,-9.9
 2004/01/07, 0:30,17.5,53,14.7,-9.9
 2004/01/07, 0:45,17.5,53,14.5,-9.9
 2004/01/07, 1:00,17.4,54,14.7,-9.9
 2004/01/07, 1:15,17.4,54,14.5,-9.9
 2004/01/07, 1:30,17.4,55,14.6,-9.9
 2004/01/07, 1:45,17.4,55,14.5,-9.9
 2004/01/07, 2:00,17.4,55,14.6,-9.9
 2004/01/07, 2:15,17.4,55,14.5,-9.9
 2004/01/07, 2:30,17.3,55,14.7,-9.9
 2004/01/07, 2:45,17.3,54,14.8,-9.9
 2004/01/07, 3:00,17.1,54,14.8,-9.9
 2004/01/07, 3:15,17.1,54,14.8,-9.9
 2004/01/07, 3:30,17.2,53,14.8,-9.9
 2004/01/07, 3:45,17.1,53,14.8,-9.9
 2004/01/07, 4:00,17.1,53,14.8,-9.9
 2004/01/07, 4:15,17,53,14.8,-9.9
 2004/01/07, 4:30,17,54,14.8,-9.9
 2004/01/07, 4:45,17.2,54,14.8,-9.9
 2004/01/07, 5:00,17.1,54,14.8,-9.9
 2004/01/07, 5:15,17,55,14.7,-9.9
 2004/01/07, 5:30,17,55,14.7,-9.9
 2004/01/07, 5:45,17,55,14.6,-9.9
 2004/01/07, 6:00,17.1,55,14.6,-9.9
 2004/01/07, 6:15,17.1,55,14.5,-9.9
 2004/01/07, 6:30,17.1,55,14.5,-9.9
 2004/01/07, 6:45,17,55,14.5,-9.9
 2004/01/07, 7:00,17.1,55,14.7,-9.9
 2004/01/07, 7:15,17.5,54,15.1,-9.9
 2004/01/07, 7:30,17.2,55,15.1,-9.9
 2004/01/07, 7:45,17.4,57,14.8,-9.9
 2004/01/07, 8:00,17.4,51,14.6,-9.9
 2004/01/07, 8:15,17.6,51,14.5,-9.9
 2004/01/07, 8:30,17.6,49,14.4,-9.9
 2004/01/07, 8:45,17.8,48,14.4,-9.9
 2004/01/07, 9:00,17.8,46,14.3,-9.9
 2004/01/07, 9:15,17.8,45,14.2,-9.9
 2004/01/07, 9:30,17.7,45,14.2,-9.9
 2004/01/07, 9:45,17.6,46,14.4,-9.9
 2004/01/07,10:00,17.6,47,14.7,-9.9
 2004/01/07,10:15,17.4,48,14.7,-9.9
 2004/01/07,10:30,17.4,48,14.8,-9.9
 2004/01/07,10:45,17.3,49,14.8,-9.9
 2004/01/07,11:00,17.4,49,14.9,-9.9
 2004/01/07,11:15,17.4,49,14.8,-9.9
 2004/01/07,11:30,17.3,49,14.9,-9.9
 2004/01/07,11:45,17.3,49,14.9,-9.9
 2004/01/07,12:00,17.3,49,15,-9.9
 2004/01/07,12:15,17.3,49,15,-9.9
 2004/01/07,12:30,17.3,49,15,-9.9
 2004/01/07,12:45,17.3,49,15.1,-9.9
 2004/01/07,13:00,17.3,48,15.1,-9.9
 2004/01/07,13:15,17.3,49,15.1,-9.9
 2004/01/07,13:30,17.2,49,15.1,-9.9
 2004/01/07,13:45,17.3,50,15.1,-9.9
 2004/01/07,14:00,17.2,49,15.2,-9.9
 2004/01/07,14:15,17.3,48,15.2,-9.9
 2004/01/07,14:30,17.2,48,15.3,-9.9
 2004/01/07,14:45,17.2,48,15.3,-9.9
 2004/01/07,15:00,17.2,48,15.3,-9.9
 2004/01/07,15:15,17.2,47,15.3,-9.9
 2004/01/07,15:30,17.2,47,15.2,-9.9
 2004/01/07,15:45,17.2,48,15.5,-9.9
 2004/01/07,16:00,17.2,48,15.4,-9.9
 2004/01/07,16:15,17.2,48,15.5,-9.9
 2004/01/07,16:30,17.2,48,15.5,-9.9
 2004/01/07,16:45,17.1,48,15.4,-9.9
 2004/01/07,17:00,17.1,49,15.4,-9.9
 2004/01/07,17:15,17.1,49,15.3,-9.9
 2004/01/07,17:30,17.1,49,15.3,-9.9
 2004/01/07,17:45,17,49,15.3,-9.9
 2004/01/07,18:00,17,50,15.3,-9.9
 2004/01/07,18:15,17.1,50,15.2,-9.9
 2004/01/07,18:30,17.1,50,15.3,-9.9
 2004/01/07,18:45,17.1,50,15.2,-9.9
 2004/01/07,19:00,17,50,15.2,-9.9